EW7755 Weather Reports


time (UTC)temp
C
wind
direction
speed
KPH
gust
KPH
rain 1hr
cm
rain 24hr
cm
rain mn
cm
humidity
%
barometer
mb
20260504234732 18 28 27.4 46.7 0.00 0.00 0.00 32 1006.5
20260504234453 18 4 27.4 45.1 0.00 0.00 0.00 32 1006.5
20260504233733 18 52 29.0 45.1 0.00 0.00 0.00 32 1006.5
20260504233454 19 45 29.0 45.1 0.00 0.00 0.00 32 1006.4
20260504232956 19 52 35.4 49.9 0.00 0.00 0.00 32 1006.2
20260504232232 19 45 25.7 49.9 0.00 0.00 0.00 32 1006.2
20260504231732 19 39 24.1 46.7 0.00 0.00 0.00 31 1006.2
20260504231230 20 44 29.0 46.7 0.00 0.00 0.00 30 1006.2
20260504230730 20 51 24.1 43.5 0.00 0.00 0.00 30 1006.1
20260504230230 20 49 22.5 35.4 0.00 0.00 0.00 29 1006.0
20260504225727 20 52 17.7 35.4 0.00 0.00 0.00 28 1006.0
20260504225223 20 49 25.7 35.4 0.00 0.00 0.00 28 1006.0
20260504224943 20 55 22.5 35.4 0.00 0.00 0.00 28 1006.0
20260504224219 20 65 19.3 35.4 0.00 0.00 0.00 28 1006.0
20260504223715 20 30 16.1 30.6 0.00 0.00 0.00 27 1005.9
20260504223215 20 16 17.7 30.6 0.00 0.00 0.00 27 1005.7
20260504222714 20 61 20.9 33.8 0.00 0.00 0.00 27 1005.6
20260504222210 20 59 17.7 41.8 0.00 0.00 0.00 27 1005.6
20260504221930 21 62 20.9 43.5 0.00 0.00 0.00 27 1005.4
20260504221208 21 49 25.7 43.5 0.00 0.00 0.00 28 1005.2
20260504220707 21 54 24.1 46.7 0.00 0.00 0.00 28 1005.3
20260504220206 21 34 29.0 49.9 0.00 0.00 0.00 28 1005.1
20260504215704 21 10 29.0 51.5 0.00 0.00 0.00 29 1005.1
20260504215204 21 28 30.6 56.3 0.00 0.00 0.00 29 1005.1
20260504214703 21 11 35.4 56.3 0.00 0.00 0.00 29 1005.1
20260504214203 21 34 35.4 62.8 0.00 0.00 0.00 27 1004.7
20260504213702 22 14 43.5 62.8 0.00 0.00 0.00 26 1004.4
20260504213203 23 17 27.4 41.8 0.00 0.00 0.00 22 1004.5
20260504212703 23 38 12.9 33.8 0.00 0.00 0.00 19 1004.5
20260504212203 24 0 19.3 30.6 0.00 0.00 0.00 19 1004.5
20260504211924 25 344 16.1 29.0 0.00 0.00 0.00 20 1004.4
20260504211204 25 24 19.3 29.0 0.00 0.00 0.00 19 1004.4
20260504210703 25 24 22.5 29.0 0.00 0.00 0.00 19 1004.4
20260504210429 24 35 4.8 22.5 0.00 0.00 0.00 18 1004.5
20260504205702 25 71 4.8 19.3 0.00 0.00 0.00 17 1004.5
20260504205202 26 0 12.9 17.7 0.00 0.00 0.00 17 1004.5
20260504204702 26 30 8.0 20.9 0.00 0.00 0.00 17 1004.5
20260504204203 26 6 14.5 20.9 0.00 0.00 0.00 18 1004.6
20260504203703 26 28 8.0 20.9 0.00 0.00 0.00 17 1004.7
20260504203202 26 344 9.7 20.9 0.00 0.00 0.00 17 1004.8
20260504202703 26 343 6.4 19.3 0.00 0.00 0.00 18 1004.8
20260504202202 26 334 6.4 19.3 0.00 0.00 0.00 17 1004.8
20260504201703 26 24 8.0 14.5 0.00 0.00 0.00 16 1004.8
20260504201202 26 158 1.6 19.3 0.00 0.00 0.00 17 1005.1
20260504200703 26 230 11.3 19.3 0.00 0.00 0.00 18 1005.2
20260504200203 26 188 9.7 16.1 0.00 0.00 0.00 18 1005.1
20260504195703 26 217 11.3 16.1 0.00 0.00 0.00 18 1005.2
20260504195203 26 290 6.4 9.7 0.00 0.00 0.00 18 1005.3
20260504194202 25 189 3.2 6.4 0.00 0.00 0.00 19 1005.4
20260504193704 25 0 1.6 14.5 0.00 0.00 0.00 19 1005.5
20260504193202 25 0 4.8 17.7 0.00 0.00 0.00 19 1005.6
20260504192703 25 266 9.7 17.7 0.00 0.00 0.00 19 1005.7
20260504192203 25 238 6.4 14.5 0.00 0.00 0.00 20 1005.6
20260504191920 24 251 3.2 14.5 0.00 0.00 0.00 20 1005.7
20260504191433 24 0 9.7 16.1 0.00 0.00 0.00 19 1005.7
20260504190703 25 300 4.8 16.1 0.00 0.00 0.00 19 1006.0
20260504190204 25 319 8.0 17.7 0.00 0.00 0.00 19 1006.0
20260504185703 25 341 12.9 17.7 0.00 0.00 0.00 21 1006.0
20260504185203 25 299 4.8 16.1 0.00 0.00 0.00 18 1006.0
20260504184703 25 281 8.0 17.7 0.00 0.00 0.00 19 1006.1
20260504184202 25 317 9.7 17.7 0.00 0.00 0.00 18 1006.2
20260504183702 24 247 8.0 16.1 0.00 0.00 0.00 20 1006.3
20260504182702 23 345 11.3 17.7 0.00 0.00 0.00 21 1006.4
20260504182202 23 0 8.0 14.5 0.00 0.00 0.00 23 1006.4
20260504181702 24 0 4.8 16.1 0.00 0.00 0.00 20 1006.4
20260504181202 24 237 8.0 16.1 0.00 0.00 0.00 21 1006.5
20260504180702 24 235 9.7 14.5 0.00 0.00 0.00 20 1006.5
20260504180202 23 86 1.6 6.4 0.00 0.00 0.00 21 1006.7
20260504175702 22 16 3.2 6.4 0.00 0.00 0.00 21 1006.8
20260504175202 22 157 3.2 9.7 0.00 0.00 0.00 22 1006.8
20260504174703 22 62 4.8 14.5 0.00 0.00 0.00 22 1006.9
20260504174422 22 16 9.7 14.5 0.00 0.00 0.00 23 1006.9
20260504173704 22 354 9.7 11.3 0.00 0.00 0.00 23 1006.9
20260504173201 23 62 3.2 4.8 0.00 0.00 0.00 23 1007.0
20260504172702 23 155 1.6 8.0 0.00 0.00 0.00 23 1007.0
20260504172201 23 220 6.4 8.0 0.00 0.00 0.00 24 1007.0
20260504171704 22 200 4.8 6.4 0.00 0.00 0.00 23 1007.1
20260504171202 21 162 3.2 6.4 0.00 0.00 0.00 26 1007.1
20260504170702 21 120 3.2 6.4 0.00 0.00 0.00 26 1007.3
20260504170202 21 147 1.6 6.4 0.00 0.00 0.00 27 1007.3
20260504160409 18 266 14.5 24.1 0.00 0.00 0.00 37 1007.5
20260504151147 14 285 14.5 25.7 0.00 0.00 0.00 43 1007.6
20260504150646 14 243 16.1 24.1 0.00 0.00 0.00 45 1007.6
20260504150147 13 245 14.5 20.9 0.00 0.00 0.00 46 1007.6
20260504141134 11 261 12.9 27.4 0.00 0.00 0.00 50 1007.6
20260504140635 11 275 14.5 25.7 0.00 0.00 0.00 51 1007.7
20260504140132 11 314 9.7 29.0 0.00 0.00 0.00 52 1007.6
20260504130631 7 244 17.7 29.0 0.00 0.00 0.00 63 1007.2
20260504130131 7 247 16.1 29.0 0.00 0.00 0.00 64 1007.2
20260504120128 7 255 19.3 32.2 0.00 0.00 0.00 59 1007.0
20260504110628 7 237 19.3 24.1 0.00 0.00 0.00 61 1006.7
20260504110349 7 235 20.9 24.1 0.00 0.00 0.00 61 1006.7
20260504100125 7 254 16.1 24.1 0.00 0.00 0.00 59 1007.0
20260504090125 8 258 11.3 17.7 0.00 0.00 0.00 53 1007.5
20260504081622 9 182 11.3 16.1 0.00 0.00 0.00 51 1007.6
20260504081116 9 195 9.7 16.1 0.00 0.00 0.00 50 1007.6
20260504080617 9 188 9.7 14.5 0.00 0.00 0.00 51 1007.6
20260504080113 9 185 9.7 17.7 0.00 0.00 0.00 51 1007.6
20260504070104 10 106 6.4 8.0 0.00 0.00 0.00 45 1008.5
20260504060104 12 94 8.0 16.1 0.00 0.00 0.00 41 1008.8
20260504050552 13 157 6.4 20.9 0.00 0.00 0.00 40 1009.1
20260504045552 13 182 9.7 24.1 0.00 0.00 0.00 40 1009.1
20260504045052 13 168 14.5 22.5 0.00 0.00 0.00 40 1009.1
20260504044551 13 192 11.3 22.5 0.00 0.00 0.00 40 1009.1
20260504044051 13 189 11.3 22.5 0.00 0.00 0.00 40 1009.1
20260504043821 13 175 14.5 20.9 0.00 0.00 0.00 39 1009.3
20260504042546 13 169 11.3 17.7 0.00 0.00 0.00 39 1009.2
20260504042314 13 159 9.7 20.9 0.00 0.00 0.00 39 1009.3
20260504041546 13 182 11.3 20.9 0.00 0.00 0.00 39 1009.4
20260504041043 13 158 11.3 19.3 0.00 0.00 0.00 38 1009.4
20260504040539 14 192 11.3 19.3 0.00 0.00 0.00 39 1009.5
20260504040041 14 179 9.7 16.1 0.00 0.00 0.00 38 1009.5
20260504035540 14 168 8.0 16.1 0.00 0.00 0.00 38 1009.6
20260504035037 14 138 6.4 16.1 0.00 0.00 0.00 38 1009.5
20260504034533 15 133 8.0 16.1 0.00 0.00 0.00 37 1009.5
20260504034031 15 172 6.4 16.1 0.00 0.00 0.00 37 1009.6
20260504033531 15 169 4.8 9.7 0.00 0.00 0.00 36 1009.5
20260504033031 15 157 4.8 9.7 0.00 0.00 0.00 36 1009.4
20260504032530 15 149 4.8 16.1 0.00 0.00 0.00 36 1009.4
20260504032031 15 138 9.7 16.1 0.00 0.00 0.00 36 1009.5
20260504031528 15 137 9.7 11.3 0.00 0.00 0.00 35 1009.4
20260504031250 15 120 8.0 11.3 0.00 0.00 0.00 35 1009.5
20260504030524 16 123 9.7 19.3 0.00 0.00 0.00 35 1009.5
20260504030022 16 113 14.5 20.9 0.00 0.00 0.00 34 1009.4
20260504025518 16 103 16.1 20.9 0.00 0.00 0.00 34 1009.5
20260504025019 16 113 17.7 20.9 0.00 0.00 0.00 34 1009.4
20260504024519 16 104 14.5 16.1 0.00 0.00 0.00 34 1009.3
20260504024016 16 120 9.7 14.5 0.00 0.00 0.00 34 1009.3
20260504023517 16 113 11.3 16.1 0.00 0.00 0.00 34 1009.3
20260504023015 17 131 9.7 16.1 0.00 0.00 0.00 33 1009.4
20260504022515 17 121 9.7 14.5 0.00 0.00 0.00 33 1009.5
20260504022017 17 116 9.7 14.5 0.00 0.00 0.00 32 1009.5
20260504021747 17 100 9.7 16.1 0.00 0.00 0.00 31 1009.4
20260504021017 17 102 9.7 16.1 0.00 0.00 0.00 31 1009.3
20260504020516 17 103 9.7 14.5 0.00 0.00 0.00 31 1009.3
20260504020243 17 103 9.7 14.5 0.00 0.00 0.00 31 1009.4
20260504015514 18 110 11.3 14.5 0.00 0.00 0.00 31 1009.2
20260504015016 18 111 9.7 11.3 0.00 0.00 0.00 31 1009.2
20260504014516 18 111 11.3 14.5 0.00 0.00 0.00 30 1009.3
20260504014014 18 107 9.7 14.5 0.00 0.00 0.00 29 1009.2
20260504013515 18 103 9.7 11.3 0.00 0.00 0.00 29 1009.2
20260504013014 18 94 9.7 14.5 0.00 0.00 0.00 29 1009.2
20260504012514 18 85 9.7 16.1 0.00 0.00 0.00 28 1009.2
20260504011515 18 73 9.7 11.3 0.00 0.00 0.00 26 1009.2
20260504010513 20 82 6.4 9.7 0.00 0.00 0.00 25 1009.3
20260504010015 20 63 6.4 9.7 0.00 0.00 0.00 23 1009.3
20260504005515 21 7 3.2 9.7 0.00 0.00 0.00 22 1009.3
20260504005232 21 0 8.0 9.7 0.00 0.00 0.00 22 1009.2
20260504004510 21 27 6.4 11.3 0.00 0.00 0.00 21 1009.3
20260504004005 21 0 9.7 11.3 0.00 0.00 0.00 21 1009.3
20260504003506 22 21 3.2 9.7 0.00 0.00 0.00 22 1009.4
20260504003229 22 27 4.8 9.7 0.00 0.00 0.00 21 1009.4
20260504002506 22 0 6.4 9.7 0.00 0.00 0.00 21 1009.4
20260504002004 21 3 6.4 9.7 0.00 0.00 0.00 22 1009.4
20260504001732 21 18 3.2 4.8 0.00 0.00 0.00 21 1009.5
20260504001004 21 18 3.2 6.4 0.00 0.00 0.00 21 1009.5
20260504000504 21 56 3.2 6.4 0.00 0.00 0.00 20 1009.5
20260504000004 21 38 1.6 9.7 0.00 0.00 0.00 20 1009.5
20260503235503 21 3 4.8 11.3 0.00 0.00 0.00 20 1009.6